Powrót do katalogu

STARLINK-36567

AktywnyŁącznośćSSO
NORAD 67552·PAYLOAD·🇺🇸 United States

Wystrzelony Jan 22, 2026 z Vandenberg Space Force Base

Loading…

Następne Przeloty (najbliższe 24 godziny)

TLE

ŚwieżeSource: CelesTrak SupGP

Epoka: Sep 14, 2026, 22:52 UTC

1 67552C 26014W   26257.95326389  .00033950  00000+0  10541-2 0  2574
2 67552  97.2848 143.4433 0002264  94.3341 186.1230 15.33412642    18

Śledź STARLINK-36567 w czasie rzeczywistym z AllMySat

Download on the App Store